Regional Weather Roundup
Issued by NWS

Home | Current Version | Previous Version | Text Only | Print | Product List | Glossary On
Versions: 1 2 3 4 5 6 7 8 9 10 11 12 13 14 15 16 17 18 19 20 21 22 23 24 25 26 27 28 29 30 31 32 33 34 35 36 37 38 39 40 41 42 43 44 45 46 47 48 49 50
000
ASUS43 KTOP 272308
RWRKS

WEATHER ROUNDUP FOR KANSAS
NATIONAL WEATHER SERVICE GOODLAND KS
600 PM CDT WED JUL 27 2016

NOTE:  "FAIR" INDICATES FEW OR NO CLOUDS BELOW 12,000 FEET WITH NO
SIGNIFICANT WEATHER AND/OR OBSTRUCTIONS TO VISIBILITY.

KSZ001>006-013>018-027>032-041>047-280000-
NORTHWEST KANSAS

CITY           SKY/WX    TMP DP  RH WIND       PRES   REMARKS
GOODLAND       SUNNY     91  59  33 SE10      30.05S
HAYS           CLOUDY    91  64  40 CALM      29.97F
HILL CITY      SUNNY     88  67  49 SE7       29.99F
RUSSELL        PTSUNNY   93  65  39 N3        29.95R HX  95
$$

KSZ061>065-074>080-084>089-280000-
SOUTHWEST KANSAS

CITY           SKY/WX    TMP DP  RH WIND       PRES   REMARKS
DODGE CITY     TSTM      75  68  78 SE21G35   30.04R
ELKHART          N/A     98  60  28 E10         N/A  HX  98
GARDEN CITY    CLOUDY    90  58  33 SE12      29.95F
GREAT BEND     SUNNY     90  64  43 E5        29.94F
LIBERAL        CLOUDY    81  63  54 S7        30.01R
PRATT          SUNNY     90  62  39 NE5       29.97S
$$

KSZ066>073-081>083-090>101-280000-
SOUTHEAST KANSAS

CITY           SKY/WX    TMP DP  RH WIND       PRES   REMARKS
CHANUTE        MOSUNNY   91  75  59 N3        29.92R HX 101
COFFEYVILLE    MOSUNNY   91  73  55 NE3       29.90S HX  99
HUTCHINSON     SUNNY     93  68  43 E6        29.94F HX  97
MEDICINE LODGE   N/A     94  65  38 NE12G21   29.93R HX  96
NEWTON         SUNNY     88  73  61 SE7       29.96S HX  95
PARSONS        MOSUNNY   91  74  57 CALM      29.92S HX 100
WICHITA INTL   PTSUNNY   91  68  46 NE8       29.94R HX  95
WICHITA JABRA  MOSUNNY   89  73  59 NE8       29.94S HX  97
WICHITA MCCONL SUNNY     91  69  47 NE7       29.94S HX  95
WINFIELD       MOSUNNY   92  71  50 NE9       29.94R HX  98
$$

KSZ007>012-019>026-033>040-048>060-102>105-280000-
NORTHEAST KANSAS

CITY           SKY/WX    TMP DP  RH WIND       PRES   REMARKS
CONCORDIA      SUNNY     87  65  47 SE5       29.96F
EMPORIA        SUNNY     89  70  53 E3        29.93F
LAWRENCE       MOSUNNY   90  65  43 NW7       29.92F
MANHATTAN      MOSUNNY   90  68  48 N3        29.93S
MARYSVILLE     SUNNY     90  64  43 N7        29.94S
OLATHE IND     SUNNY     90  64  42 NW8       29.93F
OLATHE EXE     MOSUNNY   88  67  49 VRB3      29.93F
SALINA         SUNNY     93  69  45 VRB3      29.94S HX  98
TOPEKA BILLARD MOSUNNY   91  65  41 CALM      29.92S
TOPEKA FORBES  MOSUNNY   89  71  55 NE3       29.93S HX  95
$$




USA.gov is the U.S. government's official web portal to all federal, state and local government web resources and services.